COSMOS 1275 DEB, 13489

Orbit data source: Space-Track

COSMOS 1275 DEB, 13489 is space debris in LEO originally from a launch on Thu, 04 Jun 1981 UTC launched from the Plesetsk Missile And Space Complex (PKMTR). Debris objects in space refer to the collection of defunct objects orbiting the Earth. Examples of debris include non-operational satellites, rocket bodies, and fragments generated from explosions, collisions, or faulty payload assembly.

Loading next visibility...
Identifier
13489, 1981-053GK
Orbit
LEO
Country
Flag of CISCIS
Related business
Manufacturer
Unknown
Mission
Spacecraft
Bus & Motor
Unknown
Mass
Unknown
Launch date (UTC)
1981-06-04 (45 years ago)
Launch vehicle
Unknown
Launch site
Plesetsk Missile And Space Complex (PKMTR)
Object type
Payload
Rocket body
Debris
Shape & HBR
Unknown shape, 0.1 m
Radar Cross Section
Small (<0.1 m²)

Expand to show TLE details & history
Last TLE update: 17 hours ago

TLE from 17 hours ago
0 COSMOS 1275 DEB
1 13489U 81053GK  25350.17219735  .00000994  00000-0  14925-2 0  9997
2 13489  83.1377  63.4694 0235493 295.3860  89.6447 13.41768627117470
Epoch: 2025-12-16T04:07Z
TLE epoch observation values (Epoch: 2025-12-16T04:07:57.851Z)
Latitude
27.55175°
Longitude
-80.00056°
Altitude
1,109.094 km
Speed
7.299 km/s
True Right ascension
04h 28m 12s
True Declination
27° 25' 03"
Sunlit
Object was in full shadow at epoch
Visualization orbit readout
Latitude
Unknown
Longitude
Unknown
Altitude
Unknown
Speed
Unknown
Apparent Right ascension
Unknown
Apparent Declination
Unknown
Sunlit
N/A
Visualization observer readout
Local Sidereal Time
19:35:01
Azimuth
Unknown
Elevation
Unknown
Doppler factor
Unknown
Orbital elements
Apogee altitude
1,275.986 km
Perigee altitude
923.782 km
Semi-major axis
7,478.021 km
Eccentricity
0.02355
Inclination
83.1377°
RAAN
63.4694°
Arg. of periapsis
295.386°
True anomaly
92.34269°
Mean anomaly
89.6447°
Eccentric anomaly
90.99377°
Mean motion
3.35632 °/min
Orbital period
107.26 mins
BSTAR
0.0014925
Loading maneuver chart data...
Computing Atmospheric mass density...
Loading historical data...
Loading historical data...
Loading historical data...
Loading historical data...
Loading historical data...
Loading historical data...
Loading historical data...

Documentation

Showing up to 5 results
|